Weather History for North Bend, OR

Change the Weather History Date:

Sunday, December 8, 2013

  Actual Average Record
Temperature  
Mean Temperature 32 °F 46 °F  
Max Temperature 41 °F 51 °F 66 °F (1962)
Min Temperature 23 °F 40 °F 15 °F (1972)
Degree Days  
Heating Degree Days 33 20  
Month to date heating degree days 213 153  
Since 1 July heating degree days 1328 1605  
Cooling Degree Days 0 0  
Month to date cooling degree days 0 0  
Year to date cooling degree days 13 2  
Moisture  
Dew Point 20 °F    
Average Humidity 68    
Maximum Humidity 92    
Minimum Humidity 34    
Precipitation  
Precipitation 0.00 in 0.37 in 1.45 in (1963)
Month to date precipitation 1.03 3.02  
Year to date precipitation 28.37 56.80  
Sea Level Pressure  
Sea Level Pressure 30.47 in    
Wind  
Wind Speed 6 mph (East)    
Max Wind Speed 15 mph    
Max Gust Speed 18 mph    
Visibility 10 miles    
Events      
T = Trace of Precipitation, MM = Missing Value Source: NWS Daily Summary

Daily Weather History Graph

Daily Weather History Graph

Search for Another Location

Airport:

Trip Planner

Search our weather history database for the weather conditions in past years. The results will help you decide how hot, cold, wet, or windy it might be!

Date:

Astronomy

Dec. 08, 2013 Rise Set
Actual Time 7:37 AM PST 4:40 PM PST
Civil Twilight 7:04 AM PST 5:13 PM PST
Nautical Twilight 6:28 AM PST 5:49 PM PST
Astronomical Twilight 5:54 AM PST 6:23 PM PST
Moon 11:52 AM PST (12/8) 11:46 PM PST (12/8)
Length of Visible Light 10h 08m
Length of Day
9h 03m
Waxing Crescent, 41% of the Moon is Illuminated
Dec 8
Waxing Crescent
Dec 9
First Quarter
Dec 17
Full
Dec 25
Last Quarter
Jan 1
New

Hourly Weather History & Observations

Time (PST) Temp. Windchill Dew Point Humidity Pressure Visibility Wind Dir Wind Speed Gust Speed Precip Events Conditions
12:15 AM 24.8 °F 20.5 °F 21.2 °F 86% 30.37 in 10.0 mi NNE 3.5 mph - N/A   Clear
12:35 AM 24.8 °F - 23.0 °F 93% 30.37 in 10.0 mi Calm Calm - N/A   Clear
12:55 AM 24.8 °F 15.3 °F 21.2 °F 86% 30.37 in 10.0 mi East 9.2 mph - N/A   Clear
1:15 AM 26.6 °F 18.2 °F 21.2 °F 80% 30.37 in 10.0 mi ESE 8.1 mph - N/A   Clear
1:35 AM 26.6 °F 18.2 °F 21.2 °F 80% 30.37 in 10.0 mi East 8.1 mph - N/A   Clear
1:55 AM 26.6 °F 14.7 °F 21.2 °F 80% 30.38 in 10.0 mi East 15.0 mph 18.4 mph N/A   Clear
2:15 AM 26.6 °F 16.8 °F 21.2 °F 80% 30.39 in 10.0 mi East 10.4 mph - N/A   Clear
2:35 AM 24.8 °F 17.9 °F 21.2 °F 86% 30.39 in 10.0 mi East 5.8 mph - N/A   Clear
2:55 AM 24.8 °F - 23.0 °F 93% 30.40 in 10.0 mi Calm Calm - N/A   Clear
3:15 AM 24.8 °F 19.1 °F 21.2 °F 86% 30.40 in 10.0 mi ESE 4.6 mph - N/A   Clear
3:35 AM 24.8 °F 17.9 °F 21.2 °F 86% 30.40 in 10.0 mi East 5.8 mph - N/A   Clear
3:55 AM 26.6 °F 19.1 °F 21.2 °F 80% 30.40 in 10.0 mi East 6.9 mph - N/A   Clear
4:15 AM 24.8 °F 16.9 °F 21.2 °F 86% 30.40 in 10.0 mi East 6.9 mph - N/A   Clear
4:35 AM 24.8 °F - 21.2 °F 86% 30.41 in 10.0 mi Calm Calm - N/A   Clear
4:55 AM 24.8 °F - 21.2 °F 86% 30.41 in 10.0 mi Calm Calm - N/A   Clear
5:15 AM 24.8 °F 14.6 °F 21.2 °F 86% 30.41 in 10.0 mi ESE 10.4 mph - N/A   Clear
5:35 AM 26.6 °F 18.2 °F 21.2 °F 80% 30.41 in 10.0 mi ESE 8.1 mph - N/A   Clear
5:55 AM 24.8 °F 17.9 °F 21.2 °F 86% 30.42 in 10.0 mi East 5.8 mph - N/A   Clear
6:15 AM 24.8 °F 16.9 °F 21.2 °F 86% 30.43 in 10.0 mi East 6.9 mph - N/A   Clear
6:35 AM 24.8 °F 20.5 °F 21.2 °F 86% 30.43 in 10.0 mi NE 3.5 mph - N/A   Clear
6:55 AM 26.6 °F - 21.2 °F 80% 30.44 in 10.0 mi Calm Calm - N/A   Clear
7:15 AM 24.8 °F 19.1 °F 21.2 °F 86% 30.44 in 10.0 mi ESE 4.6 mph - N/A   Clear
7:35 AM 24.8 °F 15.3 °F 21.2 °F 86% 30.45 in 10.0 mi ESE 9.2 mph - N/A   Clear
7:55 AM 24.8 °F 14.6 °F 21.2 °F 86% 30.46 in 10.0 mi East 10.4 mph - N/A   Clear
8:15 AM 26.6 °F 16.2 °F 21.2 °F 80% 30.46 in 10.0 mi East 11.5 mph - N/A   Clear
8:35 AM 26.6 °F 20.0 °F 21.2 °F 80% 30.47 in 10.0 mi ENE 5.8 mph - N/A   Clear
8:55 AM 28.4 °F 23.3 °F 23.0 °F 80% 30.48 in 10.0 mi NNE 4.6 mph - N/A   Clear
9:15 AM 28.4 °F 23.3 °F 21.2 °F 74% 30.47 in 10.0 mi ENE 4.6 mph - N/A   Clear
9:35 AM 28.4 °F 19.7 °F 21.2 °F 74% 30.47 in 10.0 mi East 9.2 mph - N/A   Clear
9:55 AM 30.2 °F 20.2 °F 21.2 °F 69% 30.47 in 10.0 mi East 12.7 mph - N/A   Unknown
10:15 AM 30.2 °F 20.8 °F 21.2 °F 69% 30.47 in 10.0 mi East 11.5 mph - N/A   Clear
10:35 AM 32.0 °F 24.8 °F 21.2 °F 64% 30.47 in 10.0 mi East 8.1 mph - N/A   Clear
10:55 AM 32.0 °F 26.4 °F 21.2 °F 64% 30.47 in 10.0 mi NNE 5.8 mph - N/A   Clear
11:15 AM 32.0 °F 28.7 °F 19.4 °F 60% 30.48 in 10.0 mi NNE 3.5 mph - N/A   Clear
11:35 AM 35.6 °F 32.8 °F 19.4 °F 52% 30.47 in 10.0 mi ESE 3.5 mph - N/A   Clear
11:55 AM 35.6 °F 31.7 °F 19.4 °F 52% 30.46 in 10.0 mi ESE 4.6 mph - N/A   Clear
12:15 PM 35.6 °F 32.8 °F 19.4 °F 52% 30.46 in 10.0 mi NNW 3.5 mph - N/A   Clear
12:35 PM 37.4 °F - 17.6 °F 45% 30.46 in 10.0 mi Calm Calm - N/A   Clear
12:55 PM 37.4 °F 32.8 °F 15.8 °F 41% 30.45 in 10.0 mi ENE 5.8 mph - N/A   Clear
1:15 PM 39.2 °F 33.6 °F 14.0 °F 36% 30.44 in 10.0 mi East 8.1 mph - N/A   Clear
1:35 PM 39.2 °F 33.6 °F 15.8 °F 39% 30.44 in 10.0 mi ESE 8.1 mph - N/A   Clear
1:55 PM 39.2 °F 34.2 °F 15.8 °F 39% 30.44 in 10.0 mi ESE 6.9 mph - N/A   Clear
2:15 PM 39.2 °F 35.0 °F 15.8 °F 39% 30.44 in 10.0 mi ESE 5.8 mph - N/A   Clear
2:35 PM 39.2 °F 35.0 °F 14.0 °F 36% 30.45 in 10.0 mi East 5.8 mph - N/A   Clear
2:55 PM 39.2 °F 35.9 °F 14.0 °F 36% 30.46 in 10.0 mi NNE 4.6 mph - N/A   Clear
3:15 PM 39.2 °F 32.5 °F 17.6 °F 42% 30.46 in 10.0 mi North 10.4 mph - N/A   Clear
3:35 PM 37.4 °F 29.8 °F 17.6 °F 45% 30.47 in 10.0 mi North 11.5 mph - N/A   Clear
3:55 PM 37.4 °F 30.3 °F 19.4 °F 48% 30.48 in 10.0 mi North 10.4 mph - N/A   Clear
4:15 PM 35.6 °F 28.6 °F 19.4 °F 52% 30.49 in 10.0 mi North 9.2 mph - N/A   Clear
4:35 PM 33.8 °F 27.0 °F 21.2 °F 60% 30.49 in 10.0 mi North 8.1 mph - N/A   Clear
4:55 PM 33.8 °F 27.0 °F 21.2 °F 60% 30.50 in 10.0 mi North 8.1 mph - N/A   Clear
5:15 PM 33.8 °F 25.8 °F 21.2 °F 60% 30.50 in 10.0 mi North 10.4 mph - N/A   Clear
5:35 PM 33.8 °F 26.4 °F 21.2 °F 60% 30.51 in 10.0 mi North 9.2 mph - N/A   Mostly Cloudy
5:55 PM 33.8 °F 30.8 °F 23.0 °F 65% 30.51 in 10.0 mi NNE 3.5 mph - N/A   Overcast
6:15 PM 32.0 °F 27.5 °F 21.2 °F 64% 30.52 in 10.0 mi NNE 4.6 mph - N/A   Mostly Cloudy
6:35 PM 30.2 °F - 23.0 °F 75% 30.53 in 10.0 mi Calm Calm - N/A   Mostly Cloudy
6:55 PM 30.2 °F 26.7 °F 23.0 °F 75% 30.53 in 10.0 mi ESE 3.5 mph - N/A   Overcast
7:15 PM 30.2 °F 24.3 °F 24.8 °F 80% 30.53 in 10.0 mi SE 5.8 mph - N/A   Overcast
7:35 PM 32.0 °F 27.5 °F 23.0 °F 69% 30.54 in 10.0 mi ESE 4.6 mph - N/A   Overcast
7:55 PM 32.0 °F 27.5 °F 21.2 °F 64% 30.54 in 10.0 mi ESE 4.6 mph - N/A   Overcast
8:15 PM 32.0 °F 24.8 °F 21.2 °F 64% 30.55 in 10.0 mi ESE 8.1 mph - N/A   Overcast
8:35 PM 32.0 °F 25.6 °F 21.2 °F 64% 30.55 in 10.0 mi ESE 6.9 mph - N/A   Overcast
8:55 PM 32.0 °F 26.4 °F 21.2 °F 64% 30.55 in 10.0 mi ESE 5.8 mph - N/A   Overcast
9:15 PM 32.0 °F 24.8 °F 19.4 °F 60% 30.55 in 10.0 mi ESE 8.1 mph - N/A   Overcast
9:35 PM 32.0 °F 24.8 °F 19.4 °F 60% 30.55 in 10.0 mi ESE 8.1 mph - N/A   Overcast
9:55 PM 30.2 °F 22.6 °F 19.4 °F 64% 30.56 in 10.0 mi ESE 8.1 mph - N/A   Overcast
10:15 PM 30.2 °F 22.6 °F 19.4 °F 64% 30.56 in 10.0 mi ESE 8.1 mph - N/A   Overcast
10:35 PM 30.2 °F 23.4 °F 19.4 °F 64% 30.56 in 10.0 mi SE 6.9 mph - N/A   Overcast
10:55 PM 30.2 °F 24.3 °F 19.4 °F 64% 30.57 in 10.0 mi SE 5.8 mph - N/A   Overcast
11:15 PM 30.2 °F 23.4 °F 19.4 °F 64% 30.57 in 10.0 mi SE 6.9 mph - N/A   Overcast
11:35 PM 30.2 °F 22.6 °F 19.4 °F 64% 30.57 in 10.0 mi ESE 8.1 mph - N/A   Overcast
11:55 PM 28.4 °F 22.2 °F 19.4 °F 69% 30.57 in 10.0 mi SSE 5.8 mph - N/A   Scattered Clouds